Location: Marcé
(47.5801°N, 0.3280°W)
Time: 19:08:43
(UTC+01:00)

Tiros 1 despin weight - Pass Details

Date: 04 December 2021
Orbit: 592 x 641 km, 48.2° (Epoch: 21 January)

Event Time Altitude Azimuth Distance (km) Brightness Sun altitude
Rises 18:02:39 0° 282° (WNW) 2,826 ? -8.5°
Reaches altitude 10° 18:04:56 10° 281° (W) 1,923 ? -8.9°
Maximum altitude 18:09:20 77° 197° (SSW) 612 ? -9.5°
Drops below altitude 10° 18:13:44 10° 111° (ESE) 1,927 ? -10.2°
Enters shadow 18:14:34 - 110° (ESE) 2,252 ? -10.4°
